Regional Weather Roundup
Issued by NWS

Home | Current Version | Previous Version | Text Only | Print | Product List | Glossary On
Versions: 1 2 3 4 5 6 7 8 9 10 11 12 13 14 15 16 17 18 19 20 21 22 23 24 25 26 27 28 29 30 31 32 33 34 35 36 37 38 39 40 41 42 43 44 45 46 47 48 49 50
000
ASUS43 KLMK 242110
RWRKY
KENTUCKY REGIONAL WEATHER ROUNDUP
NATIONAL WEATHER SERVICE LOUISVILLE KY
500 PM EDT MON JUL 24 2017

NOTE "FAIR" INDICATES FEW OR NO CLOUDS BELOW 12,000 FEET
WITH NO SIGNIFICANT WEATHER AND/OR OBSTRUCTIONS TO VISIBILITY.

KYZ001>023-026-027-061>063-070>075-242200-
WESTERN AND SOUTH CENTRAL KENTUCKY

CITY           SKY/WX    TMP DP  RH WIND       PRES   REMARKS
PADUCAH        MOSUNNY   93  72  50 CALM      29.91F HX 101
HENDERSON      MOSUNNY   90  74  59 N9        29.93F HX  99
OWENSBORO      MOSUNNY   90  75  61 N9        29.92F HX 100
HOPKINSVILLE   PTSUNNY   87  74  64 SW6       29.94F HX  96
BOWLING GREEN  CLOUDY    91  71  51 W9        29.94F HX  97
GLASGOW        CLOUDY    91  68  47 SW6       29.95F HX  94
$$

KYZ024-025-028>034-038-045-046-053-242200-
NORTH CENTRAL KENTUCKY

CITY           SKY/WX    TMP DP  RH WIND       PRES   REMARKS
LOUISVILLE/SDF PTSUNNY   89  67  47 NW10      29.92S HX  92
LOUISVILLE/LOU PTSUNNY   92  63  38 NW8       29.93S HX  93
FORT KNOX      PTSUNNY   81  74  78 CALM      29.93S
$$

KYZ035>037-039>044-047>052-055>060-089>105-242200-
NORTHEAST KENTUCKY

CITY           SKY/WX    TMP DP  RH WIND       PRES   REMARKS
LEXINGTON      CLOUDY    80  70  71 SW9       29.96R
COVINGTON      PTSUNNY   85  67  54 NW12      29.96S
FRANKFORT      CLOUDY    87  64  46 NW9       29.93S
$$

KYZ054-064>069-076>088-106>120-242200-
SOUTHEAST KENTUCKY

CITY           SKY/WX    TMP DP  RH WIND       PRES   REMARKS
JACKSON        CLOUDY    72  68  87 VRB3      29.98S
LONDON         PTSUNNY   88  64  44 W10       29.96F
SOMERSET       CLOUDY    86  66  51 W9        29.97S
MIDDLESBORO    PTSUNNY   88  71  56 S6        29.97F HX  93
MONTICELLO     MOCLDY    86  73  65 W14       29.98F HX  93
$$




USA.gov is the U.S. government's official web portal to all federal, state and local government web resources and services.